This is the latest recevied weather packets stored in our database for station/object DL5ARK. If no packets are shown the sender has not sent any weather packets the latest 10 day(s).
| Time | Temp. | Humidity | Pressure | Rain* | Wind** | Luminosity | Snow |
|---|---|---|---|---|---|---|---|
| 1777877328 | 16.67° C | 62% | 1001.8 hPa | 0 mm | - | - | - |
| 1777877150 | 16.67° C | 61% | 1001.8 hPa | 0 mm | - | - | - |
| 1777876967 | 16.67° C | 62% | 1001.8 hPa | 0 mm | - | - | - |
| 1777876788 | 16.11° C | 63% | 1001.8 hPa | 0 mm | - | - | - |
| 1777876608 | 15.56° C | 64% | 1001.8 hPa | 0 mm | - | - | - |
| 1777876247 | 15.56° C | 64% | 1001.8 hPa | 0 mm | - | - | - |
| 1777876067 | 15.56° C | 67% | 1001.8 hPa | 0 mm | - | - | - |
| 1777875888 | 15.56° C | 68% | 1001.8 hPa | 0 mm | - | - | - |
| 1777875708 | 15.56° C | 69% | 1001.8 hPa | 0 mm | - | - | - |
| 1777875527 | 15° C | 70% | 1001.8 hPa | 0 mm | - | - | - |
| 1777875350 | 15° C | 70% | 1001.8 hPa | 0 mm | - | - | - |
| 1777875168 | 15° C | 70% | 1001.8 hPa | 0 mm | - | - | - |
| 1777874987 | 15° C | 74% | 1001.8 hPa | 0 mm | - | - | - |
| 1777874807 | 15.56° C | 74% | 1001.8 hPa | 0 mm | - | - | - |
| 1777874628 | 15° C | 74% | 1001.8 hPa | 0 mm | - | - | - |
| 1777874447 | 15° C | 75% | 1001.5 hPa | 0 mm | - | - | - |
| 1777874270 | 14.44° C | 77% | 1001.8 hPa | 0 mm | - | - | - |
| 1777874087 | 13.89° C | 80% | 1001.8 hPa | 0 mm | - | - | - |
| 1777873907 | 13.89° C | 79% | 1001.5 hPa | 0 mm | - | - | - |
| 1777873728 | 13.89° C | 80% | 1001.5 hPa | 0 mm | - | - | - |
| 1777873547 | 13.33° C | 81% | 1001.5 hPa | 0 mm | - | - | - |
| 1777873368 | 13.33° C | 80% | 1001.5 hPa | 0 mm | - | - | - |
| 1777873191 | 12.78° C | 81% | 1001.5 hPa | 0 mm | - | - | - |
| 1777873007 | 12.78° C | 81% | 1001.8 hPa | 0 mm | - | - | - |
| 1777872828 | 12.22° C | 81% | 1001.8 hPa | 0 mm | - | - | - |
* Rain latest hour (hover to see other rain measurements)
** Current wind speed in m/s (hover to see current wind gust speed)